• Join FlightAware (Why Join?)
  • Login
  • US Flag GB Flag 
01:38 EDT


 

Airport Tracker/Info


-or-


 

Live Flight TrackerFlight Track Log ✈ FSR411 ✈ 20-Oct-2013 ✈ KDET - KCMI

Flight Track Log - Related Links

Times and Time Zones

All times are in EDT time to prevent confusion due to time zone crossing. See the FSR411 flight status page for this flight to view local times or setup timezone preferences in your user account.

Time Position Orientation Groundspeed Altitude Reporting Facility
EDT Latitude Longitude Course Direction KTS MPH feet Rate Location/Type
19:34 42.3631 -82.9531 137° Southeast 197 227 4,500  Level Cleveland Center
19:34 42.3428 -82.9458 165° South 212 244 5,700 3,480 Climbing Cleveland Center
19:35 42.2897 -82.9522 185° South 229 264 8,100 3,060 Climbing Cleveland Center
19:36 42.2153 -82.9733 192° South 280 322 11,400 2,400 Climbing Cleveland Center
19:37 42.1406 -83.0433 215° Southwest 336 387 13,100 2,400 Climbing Cleveland Center
19:38 42.0778 -83.1486 231° Southwest 359 413 16,400 3,960 Climbing Cleveland Center
19:39 42.0039 -83.2667 230° Southwest 372 428 21,300 4,080 Climbing Cleveland Center
19:40 41.9389 -83.3756 231° Southwest 371 427 24,900 2,700 Climbing Cleveland Center
19:41 41.8819 -83.4822 234° Southwest 380 437 27,000 1,500 Climbing Cleveland Center
19:42 41.8064 -83.6300 236° Southwest 397 457 28,000 480 Climbing Cleveland Center
19:43 41.7422 -83.7506 235° Southwest 397 457 28,000  Level Cleveland Center
19:44 41.6800 -83.8728 236° Southwest 397 457 28,000  Level Cleveland Center
19:45 41.6167 -83.9931 235° Southwest 396 456 28,000  Level Cleveland Center
19:46 41.5550 -84.1139 236° Southwest 395 455 28,000  Level Cleveland Center
19:47 41.4958 -84.2261 235° Southwest 395 455 28,000  Level Chicago Center
19:48 41.4319 -84.3456 235° Southwest 395 455 28,000  Level Chicago Center
19:49 41.3686 -84.4650 235° Southwest 395 455 28,000  Level Chicago Center
19:50 41.3117 -84.5897 239° Southwest 392 451 28,000  Level Chicago Center
19:51 41.2703 -84.7236 248° West 390 449 28,000  Level Chicago Center
19:52 41.2261 -84.8572 246° West 392 451 28,000  Level Chicago Center
19:53 41.1825 -84.9906 247° West 393 452 28,000  Level Chicago Center
19:54 41.1297 -85.1528 247° West 397 457 28,000  Level Chicago Center
19:55 41.0853 -85.2861 246° West 394 453 28,000  Level Chicago Center
19:56 41.0403 -85.4181 246° West 393 452 28,000  Level Chicago Center
19:58 40.9964 -85.5519 247° West 395 455 28,000  Level Chicago Center
19:59 40.9517 -85.6839 246° West 394 453 28,000  Level Chicago Center
20:00 40.9061 -85.8153 245° Southwest 393 452 28,000  Level Chicago Center
20:01 40.8625 -85.9486 247° West 394 453 28,000  Level Chicago Center
20:02 40.8086 -86.1058 246° West 393 452 28,000  Level Chicago Center
20:03 40.7644 -86.2372 246° West 392 451 28,000  Level Chicago Center
20:04 40.7186 -86.3675 245° Southwest 392 451 28,000 -720 Level Chicago Center
20:05 40.6739 -86.5011 246° West 393 452 26,600 -1,500 Descending Chicago Center
20:06 40.6292 -86.6294 245° Southwest 390 449 25,000 -1,260 Descending Chicago Center
20:07 40.5847 -86.7581 246° West 391 450 24,000 -1,020 Descending Chicago Center
20:08 40.5333 -86.9072 246° West 382 440 22,900 -1,500 Descending Chicago Center
20:09 40.4897 -87.0292 245° Southwest 376 433 20,900 -2,040 Descending Chicago Center
20:10 40.4444 -87.1547 245° Southwest 371 427 18,800 -1,980 Descending Chicago Center
20:11 40.4053 -87.2664 245° Southwest 359 413 16,900 -1,860 Descending Chicago Center
20:12 40.3642 -87.3814 245° Southwest 352 405 15,000 -1,920 Descending Chicago Center
20:13 40.3228 -87.4986 245° Southwest 342 394 13,000 -2,160 Descending Chicago Center
20:14 40.2808 -87.6242 246° West 318 366 10,600 -1,980 Descending Chicago Center
20:15 40.2761 -87.7200 266° West 265 305 9,000 -1,800 Descending Chicago Center
20:16 40.2653 -87.8061 261° West 245 282 7,000 -1,500 Descending Chicago Center
20:17 40.2317 -87.8792 239° Southwest 237 273 6,000 -480 Descending Chicago Center
20:18 40.1983 -87.9472 237° Southwest 227 261 6,000 -720 Level Chicago Center
20:19 40.1589 -88.0311 238° Southwest 234 269 4,500 -1,080 Descending Chicago Center
20:20 40.1228 -88.1133 240° Southwest 265 305 3,800 9,420 Descending Chicago Center
20:21 40.0711 -88.2397 242° Southwest 342 394 24,000 9,720 Climbing Chicago Center
20:22 39.9789 -88.0486 122° Southeast 568 654 24,000  Level Chicago Center
20:24 40.0141 -88.1831 246° West  Level Estimated
20:31 40.0333 -88.2667 246° West  Level FlightAware Approximate
20:32 40.0388 -88.2778 246° West  Level Estimated
20:33 40.0388 -88.2778 246° West  Level Estimated